Information on these data can be found in provided Readme document
Contact Info: Zachary Fasnacht (zachary.fasnacht@ssaihq.com); Nickolay Krotkov (nickolay.a.krotkov@nasa.gov); Lok Lamsal (lok.lamsal@nasa.gov)

FillValue: -999.
ScaleFactor: 1e15
Units: molecules/cm^2

Date(yyyy-mm-dd),City,Country,LonCenter,LatCenter,BoundingCoordinates,Median,Q1,Q3,Mean,Baseline_Median,Baseline_Q1,Baseline_Q3,Baseline_Mean,NumGoodSamples,NumTotalSamples
2015-01-01,Hangzhou,China,120.1667,30.2501,[119.6667 29.7501 120.6667 30.7501],15.778,10.542,31.8,23.983,19.592,13.642,30.855,24.283,150.0,556.0
2015-01-02,Hangzhou,China,120.1667,30.2501,[119.6667 29.7501 120.6667 30.7501],17.069,10.977,31.8,24.354,19.228,13.031,30.448,23.957,176.0,555.0
2015-01-03,Hangzhou,China,120.1667,30.2501,[119.6667 29.7501 120.6667 30.7501],16.435,10.542,29.925,22.98,18.332,12.547,28.605,22.705,165.0,567.0
2015-01-04,Hangzhou,China,120.1667,30.2501,[119.6667 29.7501 120.6667 30.7501],17.9,11.1,31.35,24.576,18.975,12.557,29.722,23.59,185.0,545.0
2015-01-05,Hangzhou,China,120.1667,30.2501,[119.6667 29.7501 120.6667 30.7501],18.287,11.138,31.501,24.927,18.825,12.399,29.05,23.093,179.0,546.0
2015-01-06,Hangzhou,China,120.1667,30.2501,[119.6667 29.7501 120.6667 30.7501],18.287,11.138,31.501,24.927,17.716,11.093,27.532,21.853,179.0,541.0
2015-01-07,Hangzhou,China,120.1667,30.2501,[119.6667 29.7501 120.6667 30.7501],26.092,15.841,37.509,30.751,20.215,13.378,31.953,24.396,150.0,558.0
2015-01-08,Hangzhou,China,120.1667,30.2501,[119.6667 29.7501 120.6667 30.7501],23.562,15.483,32.032,25.489,21.011,13.622,30.102,22.941,118.0,550.0
2015-01-09,Hangzhou,China,120.1667,30.2501,[119.6667 29.7501 120.6667 30.7501],23.198,15.483,31.8,25.161,20.94,13.751,28.922,22.509,132.0,560.0
2015-01-10,Hangzhou,China,120.1667,30.2501,[119.6667 29.7501 120.6667 30.7501],22.908,15.483,32.032,25.252,18.842,12.576,25.881,20.483,104.0,530.0
2015-01-11,Hangzhou,China,120.1667,30.2501,[119.6667 29.7501 120.6667 30.7501],22.35,15.77,31.8,25.11,17.885,12.875,25.621,19.962,120.0,519.0
2015-01-12,Hangzhou,China,120.1667,30.2501,[119.6667 29.7501 120.6667 30.7501],27.785,21.949,35.47,31.107,19.279,13.654,25.953,21.267,90.0,527.0
2015-01-13,Hangzhou,China,120.1667,30.2501,[119.6667 29.7501 120.6667 30.7501],27.785,21.949,35.47,31.107,17.775,13.597,24.851,20.37,90.0,512.0
2015-01-14,Hangzhou,China,120.1667,30.2501,[119.6667 29.7501 120.6667 30.7501],27.785,21.949,35.47,31.107,17.599,13.541,24.575,20.108,90.0,517.0
2015-01-15,Hangzhou,China,120.1667,30.2501,[119.6667 29.7501 120.6667 30.7501],24.586,15.139,34.076,26.75,17.216,12.161,24.776,19.402,105.0,514.0
2015-01-16,Hangzhou,China,120.1667,30.2501,[119.6667 29.7501 120.6667 30.7501],23.176,14.743,30.551,25.295,16.765,11.142,24.317,19.126,114.0,538.0
2015-01-17,Hangzhou,China,120.1667,30.2501,[119.6667 29.7501 120.6667 30.7501],21.991,14.743,34.008,25.047,16.847,10.987,24.922,18.904,97.0,524.0
2015-01-18,Hangzhou,China,120.1667,30.2501,[119.6667 29.7501 120.6667 30.7501],21.991,14.743,34.008,25.047,14.58,10.186,23.358,17.663,97.0,525.0
2015-01-19,Hangzhou,China,120.1667,30.2501,[119.6667 29.7501 120.6667 30.7501],16.969,12.519,29.866,21.215,13.684,9.386,22.262,16.693,77.0,541.0
2015-01-20,Hangzhou,China,120.1667,30.2501,[119.6667 29.7501 120.6667 30.7501],16.969,12.519,29.866,21.215,13.193,9.432,21.608,16.428,77.0,519.0
2015-01-21,Hangzhou,China,120.1667,30.2501,[119.6667 29.7501 120.6667 30.7501],16.969,12.519,29.866,21.215,12.996,9.399,21.577,16.217,77.0,522.0
2015-01-22,Hangzhou,China,120.1667,30.2501,[119.6667 29.7501 120.6667 30.7501],16.969,12.519,29.866,21.215,13.168,9.079,19.854,15.023,77.0,517.0
2015-01-23,Hangzhou,China,120.1667,30.2501,[119.6667 29.7501 120.6667 30.7501],16.969,12.519,29.866,21.215,13.58,9.164,19.793,15.19,77.0,534.0
2015-01-24,Hangzhou,China,120.1667,30.2501,[119.6667 29.7501 120.6667 30.7501],16.537,12.519,30.194,21.293,13.459,9.094,19.691,15.108,63.0,525.0
2015-01-25,Hangzhou,China,120.1667,30.2501,[119.6667 29.7501 120.6667 30.7501],16.537,12.519,30.194,21.293,14.735,9.808,19.976,15.588,63.0,563.0
2015-01-26,Hangzhou,China,120.1667,30.2501,[119.6667 29.7501 120.6667 30.7501],15.54,11.246,30.657,20.535,14.561,9.703,20.539,15.702,47.0,562.0
2015-01-27,Hangzhou,China,120.1667,30.2501,[119.6667 29.7501 120.6667 30.7501],15.54,11.246,30.657,20.535,14.431,9.813,19.897,14.916,47.0,552.0
2015-01-28,Hangzhou,China,120.1667,30.2501,[119.6667 29.7501 120.6667 30.7501],15.54,11.246,30.657,20.535,14.395,9.074,20.691,15.288,47.0,559.0
2015-01-29,Hangzhou,China,120.1667,30.2501,[119.6667 29.7501 120.6667 30.7501],15.54,11.246,24.069,18.655,14.296,9.179,20.265,15.309,74.0,544.0
2015-01-30,Hangzhou,China,120.1667,30.2501,[119.6667 29.7501 120.6667 30.7501],19.95,12.779,28.699,21.83,15.614,10.45,21.174,16.384,54.0,550.0
2015-01-31,Hangzhou,China,120.1667,30.2501,[119.6667 29.7501 120.6667 30.7501],16.601,12.476,19.95,17.113,15.339,10.597,19.504,15.719,73.0,546.0
2015-02-01,Hangzhou,China,120.1667,30.2501,[119.6667 29.7501 120.6667 30.7501],16.601,12.476,19.7,15.936,14.18,9.543,18.516,14.849,82.0,570.0
2015-02-02,Hangzhou,China,120.1667,30.2501,[119.6667 29.7501 120.6667 30.7501],18.072,13.128,20.051,16.6,15.376,10.691,19.584,16.036,92.0,558.0
2015-02-03,Hangzhou,China,120.1667,30.2501,[119.6667 29.7501 120.6667 30.7501],16.65,12.476,19.784,16.012,12.996,9.592,17.738,14.446,121.0,556.0
2015-02-04,Hangzhou,China,120.1667,30.2501,[119.6667 29.7501 120.6667 30.7501],16.65,12.476,19.784,16.012,13.002,9.77,17.819,14.452,121.0,570.0
2015-02-05,Hangzhou,China,120.1667,30.2501,[119.6667 29.7501 120.6667 30.7501],16.601,11.914,20.051,16.185,13.107,9.784,17.448,14.294,139.0,547.0
2015-02-06,Hangzhou,China,120.1667,30.2501,[119.6667 29.7501 120.6667 30.7501],16.601,11.914,20.051,16.185,12.763,9.498,17.555,13.685,139.0,550.0
2015-02-07,Hangzhou,China,120.1667,30.2501,[119.6667 29.7501 120.6667 30.7501],14.239,8.439,19.68,14.314,12.212,8.548,17.61,13.161,161.0,544.0
2015-02-08,Hangzhou,China,120.1667,30.2501,[119.6667 29.7501 120.6667 30.7501],14.239,8.439,19.68,14.314,12.11,8.432,17.226,13.008,161.0,561.0
2015-02-09,Hangzhou,China,120.1667,30.2501,[119.6667 29.7501 120.6667 30.7501],13.588,8.439,19.428,14.036,11.976,8.432,17.202,12.958,173.0,555.0
2015-02-10,Hangzhou,China,120.1667,30.2501,[119.6667 29.7501 120.6667 30.7501],13.534,8.439,19.171,13.924,11.894,7.987,17.026,12.647,194.0,565.0
2015-02-11,Hangzhou,China,120.1667,30.2501,[119.6667 29.7501 120.6667 30.7501],13.534,8.439,19.171,13.924,12.195,8.29,16.534,12.704,194.0,534.0
2015-02-12,Hangzhou,China,120.1667,30.2501,[119.6667 29.7501 120.6667 30.7501],12.476,8.073,18.822,13.402,11.469,7.681,16.092,11.992,221.0,526.0
2015-02-13,Hangzhou,China,120.1667,30.2501,[119.6667 29.7501 120.6667 30.7501],11.785,7.832,18.325,12.983,11.085,7.555,16.074,12.02,194.0,535.0
2015-02-14,Hangzhou,China,120.1667,30.2501,[119.6667 29.7501 120.6667 30.7501],11.785,7.832,18.325,12.983,10.296,6.071,14.167,10.734,194.0,521.0
2015-02-15,Hangzhou,China,120.1667,30.2501,[119.6667 29.7501 120.6667 30.7501],9.442,7.294,16.82,11.994,9.552,5.754,13.358,10.252,157.0,527.0
2015-02-16,Hangzhou,China,120.1667,30.2501,[119.6667 29.7501 120.6667 30.7501],9.251,7.217,14.771,11.521,7.861,6.031,12.258,9.702,139.0,523.0
2015-02-17,Hangzhou,China,120.1667,30.2501,[119.6667 29.7501 120.6667 30.7501],8.648,6.773,11.563,10.336,7.914,5.922,11.8,9.633,129.0,545.0
2015-02-18,Hangzhou,China,120.1667,30.2501,[119.6667 29.7501 120.6667 30.7501],8.434,6.571,11.118,9.965,8.896,6.545,12.589,10.389,100.0,532.0
2015-02-19,Hangzhou,China,120.1667,30.2501,[119.6667 29.7501 120.6667 30.7501],8.434,6.571,11.118,9.965,9.491,6.927,12.721,10.576,100.0,529.0
2015-02-20,Hangzhou,China,120.1667,30.2501,[119.6667 29.7501 120.6667 30.7501],7.667,5.684,9.442,7.893,8.416,6.211,13.458,9.955,82.0,543.0
2015-02-21,Hangzhou,China,120.1667,30.2501,[119.6667 29.7501 120.6667 30.7501],7.667,5.684,9.442,7.893,10.047,7.315,14.009,11.173,82.0,520.0
2015-02-22,Hangzhou,China,120.1667,30.2501,[119.6667 29.7501 120.6667 30.7501],9.203,7.832,11.118,9.576,11.012,8.08,16.891,12.755,60.0,524.0
2015-02-23,Hangzhou,China,120.1667,30.2501,[119.6667 29.7501 120.6667 30.7501],8.217,5.453,10.786,8.179,11.018,7.831,16.256,12.156,90.0,518.0
2015-02-24,Hangzhou,China,120.1667,30.2501,[119.6667 29.7501 120.6667 30.7501],7.831,5.034,10.497,7.888,11.157,7.977,15.922,12.335,78.0,535.0
2015-02-25,Hangzhou,China,120.1667,30.2501,[119.6667 29.7501 120.6667 30.7501],7.809,4.841,9.68,7.284,11.11,7.744,15.646,12.095,57.0,528.0
2015-02-26,Hangzhou,China,120.1667,30.2501,[119.6667 29.7501 120.6667 30.7501],7.809,4.841,9.68,7.284,10.817,7.746,15.684,12.066,57.0,566.0
2015-02-27,Hangzhou,China,120.1667,30.2501,[119.6667 29.7501 120.6667 30.7501],7.101,4.201,10.497,7.033,11.044,8.09,16.433,12.544,30.0,561.0
2015-02-28,Hangzhou,China,120.1667,30.2501,[119.6667 29.7501 120.6667 30.7501],7.101,4.201,10.497,7.033,12.727,8.603,18.485,13.97,30.0,550.0
2015-03-01,Hangzhou,China,120.1667,30.2501,[119.6667 29.7501 120.6667 30.7501],7.101,4.201,10.497,7.033,12.78,8.851,18.625,14.243,30.0,558.0
2015-03-02,Hangzhou,China,120.1667,30.2501,[119.6667 29.7501 120.6667 30.7501],7.101,4.201,10.497,7.033,12.422,8.995,18.877,14.349,30.0,543.0
2015-03-03,Hangzhou,China,120.1667,30.2501,[119.6667 29.7501 120.6667 30.7501],7.101,4.201,10.497,7.033,12.198,8.875,18.647,14.001,30.0,551.0
2015-03-04,Hangzhou,China,120.1667,30.2501,[119.6667 29.7501 120.6667 30.7501],7.831,4.841,11.661,8.915,11.941,8.671,18.482,13.842,40.0,546.0
2015-03-05,Hangzhou,China,120.1667,30.2501,[119.6667 29.7501 120.6667 30.7501],8.217,4.841,11.833,9.208,12.257,8.81,18.72,14.093,57.0,570.0
2015-03-06,Hangzhou,China,120.1667,30.2501,[119.6667 29.7501 120.6667 30.7501],8.217,4.841,13.26,9.829,11.976,8.616,18.383,13.86,64.0,559.0
2015-03-07,Hangzhou,China,120.1667,30.2501,[119.6667 29.7501 120.6667 30.7501],8.217,4.841,13.26,9.829,12.09,8.653,18.537,14.045,64.0,555.0
2015-03-08,Hangzhou,China,120.1667,30.2501,[119.6667 29.7501 120.6667 30.7501],8.217,4.841,13.26,9.829,13.332,8.915,19.011,14.556,64.0,570.0
2015-03-09,Hangzhou,China,120.1667,30.2501,[119.6667 29.7501 120.6667 30.7501],8.881,5.034,13.26,10.177,12.504,8.75,19.071,14.22,67.0,546.0
2015-03-10,Hangzhou,China,120.1667,30.2501,[119.6667 29.7501 120.6667 30.7501],15.274,11.359,19.469,14.808,13.608,9.287,20.192,14.909,37.0,550.0
2015-03-11,Hangzhou,China,120.1667,30.2501,[119.6667 29.7501 120.6667 30.7501],15.274,11.359,19.469,14.737,13.987,9.314,20.676,15.303,38.0,543.0
2015-03-12,Hangzhou,China,120.1667,30.2501,[119.6667 29.7501 120.6667 30.7501],15.274,11.359,19.469,14.737,14.502,9.539,21.254,15.758,38.0,557.0
2015-03-13,Hangzhou,China,120.1667,30.2501,[119.6667 29.7501 120.6667 30.7501],15.274,11.359,19.469,14.737,14.135,9.403,20.843,15.404,38.0,551.0
2015-03-14,Hangzhou,China,120.1667,30.2501,[119.6667 29.7501 120.6667 30.7501],15.256,11.109,19.469,14.497,14.333,9.463,20.838,15.429,50.0,563.0
2015-03-15,Hangzhou,China,120.1667,30.2501,[119.6667 29.7501 120.6667 30.7501],15.256,11.109,19.469,14.497,13.257,8.903,18.368,14.291,50.0,532.0
2015-03-16,Hangzhou,China,120.1667,30.2501,[119.6667 29.7501 120.6667 30.7501],15.256,11.109,19.469,14.497,13.348,8.826,18.335,14.182,50.0,521.0
2015-03-17,Hangzhou,China,120.1667,30.2501,[119.6667 29.7501 120.6667 30.7501],15.256,11.109,19.469,14.497,13.725,8.81,18.477,14.041,50.0,530.0
2015-03-18,Hangzhou,China,120.1667,30.2501,[119.6667 29.7501 120.6667 30.7501],13.26,7.296,15.879,12.831,13.858,8.447,18.796,14.192,79.0,513.0
2015-03-19,Hangzhou,China,120.1667,30.2501,[119.6667 29.7501 120.6667 30.7501],11.633,6.462,16.028,12.21,14.841,9.366,20.456,15.192,69.0,519.0
2015-03-20,Hangzhou,China,120.1667,30.2501,[119.6667 29.7501 120.6667 30.7501],11.806,7.078,16.028,12.299,14.619,9.328,20.197,15.036,52.0,518.0
2015-03-21,Hangzhou,China,120.1667,30.2501,[119.6667 29.7501 120.6667 30.7501],11.346,6.232,15.517,11.189,14.725,9.747,20.236,15.297,66.0,540.0
2015-03-22,Hangzhou,China,120.1667,30.2501,[119.6667 29.7501 120.6667 30.7501],11.353,7.296,15.879,12.123,14.583,9.99,20.221,15.371,73.0,527.0
2015-03-23,Hangzhou,China,120.1667,30.2501,[119.6667 29.7501 120.6667 30.7501],11.353,7.296,15.879,12.123,13.741,9.352,19.151,14.78,73.0,523.0
2015-03-24,Hangzhou,China,120.1667,30.2501,[119.6667 29.7501 120.6667 30.7501],11.066,5.915,15.537,11.154,13.989,9.144,18.326,14.486,76.0,537.0
2015-03-25,Hangzhou,China,120.1667,30.2501,[119.6667 29.7501 120.6667 30.7501],11.066,5.915,15.517,10.907,13.262,9.084,17.743,13.904,91.0,515.0
2015-03-26,Hangzhou,China,120.1667,30.2501,[119.6667 29.7501 120.6667 30.7501],11.066,5.915,15.517,10.897,12.769,8.591,17.701,13.49,90.0,518.0
2015-03-27,Hangzhou,China,120.1667,30.2501,[119.6667 29.7501 120.6667 30.7501],11.066,5.915,15.517,10.897,12.728,8.557,17.547,13.439,90.0,514.0
2015-03-28,Hangzhou,China,120.1667,30.2501,[119.6667 29.7501 120.6667 30.7501],11.066,5.915,15.517,10.897,13.286,8.719,17.803,13.7,90.0,530.0
2015-03-29,Hangzhou,China,120.1667,30.2501,[119.6667 29.7501 120.6667 30.7501],9.342,5.915,15.105,10.623,12.356,8.331,17.394,13.154,82.0,524.0
2015-03-30,Hangzhou,China,120.1667,30.2501,[119.6667 29.7501 120.6667 30.7501],9.342,5.915,15.105,10.623,12.081,8.262,17.167,12.899,82.0,564.0
2015-03-31,Hangzhou,China,120.1667,30.2501,[119.6667 29.7501 120.6667 30.7501],9.342,5.915,15.105,10.623,11.175,8.044,15.817,12.126,82.0,564.0
2015-04-01,Hangzhou,China,120.1667,30.2501,[119.6667 29.7501 120.6667 30.7501],11.066,5.98,15.705,11.224,10.917,7.572,15.03,11.591,92.0,552.0
2015-04-02,Hangzhou,China,120.1667,30.2501,[119.6667 29.7501 120.6667 30.7501],9.925,6.891,16.378,11.507,10.695,7.497,14.722,11.575,63.0,563.0
2015-04-03,Hangzhou,China,120.1667,30.2501,[119.6667 29.7501 120.6667 30.7501],9.925,5.98,16.799,11.947,9.704,6.824,13.49,10.585,74.0,548.0
2015-04-04,Hangzhou,China,120.1667,30.2501,[119.6667 29.7501 120.6667 30.7501],9.925,5.98,16.799,11.947,9.704,6.824,13.49,10.585,74.0,551.0
2015-04-05,Hangzhou,China,120.1667,30.2501,[119.6667 29.7501 120.6667 30.7501],10.041,8.118,13.745,11.152,9.603,7.145,13.03,10.634,87.0,550.0
2015-04-06,Hangzhou,China,120.1667,30.2501,[119.6667 29.7501 120.6667 30.7501],10.041,7.626,12.836,10.615,9.485,6.913,12.607,10.433,82.0,574.0
2015-04-07,Hangzhou,China,120.1667,30.2501,[119.6667 29.7501 120.6667 30.7501],10.27,8.118,13.288,10.787,9.542,7.047,12.717,10.46,92.0,560.0
2015-04-08,Hangzhou,China,120.1667,30.2501,[119.6667 29.7501 120.6667 30.7501],10.27,8.442,13.288,11.01,9.274,6.98,12.514,10.326,96.0,558.0
2015-04-09,Hangzhou,China,120.1667,30.2501,[119.6667 29.7501 120.6667 30.7501],10.111,8.442,12.775,10.944,9.298,6.938,12.584,10.451,103.0,572.0
2015-04-10,Hangzhou,China,120.1667,30.2501,[119.6667 29.7501 120.6667 30.7501],10.422,8.549,13.893,11.24,9.573,7.058,12.782,10.572,121.0,551.0
2015-04-11,Hangzhou,China,120.1667,30.2501,[119.6667 29.7501 120.6667 30.7501],10.422,8.549,13.893,11.24,9.391,6.937,12.514,10.326,121.0,553.0
2015-04-12,Hangzhou,China,120.1667,30.2501,[119.6667 29.7501 120.6667 30.7501],10.422,8.549,13.893,11.24,9.441,6.933,12.402,10.4,121.0,549.0
2015-04-13,Hangzhou,China,120.1667,30.2501,[119.6667 29.7501 120.6667 30.7501],10.422,8.554,14.079,11.305,9.231,6.912,12.424,10.283,117.0,565.0
2015-04-14,Hangzhou,China,120.1667,30.2501,[119.6667 29.7501 120.6667 30.7501],11.512,8.638,15.531,12.618,9.517,6.973,12.852,10.606,132.0,558.0
2015-04-15,Hangzhou,China,120.1667,30.2501,[119.6667 29.7501 120.6667 30.7501],11.399,8.573,16.031,12.623,9.529,7.075,13.757,10.787,162.0,568.0
2015-04-16,Hangzhou,China,120.1667,30.2501,[119.6667 29.7501 120.6667 30.7501],11.179,8.556,15.152,12.404,9.754,7.205,14.371,11.036,152.0,538.0
2015-04-17,Hangzhou,China,120.1667,30.2501,[119.6667 29.7501 120.6667 30.7501],11.179,8.556,15.152,12.404,9.688,7.032,13.954,10.876,152.0,495.0
2015-04-18,Hangzhou,China,120.1667,30.2501,[119.6667 29.7501 120.6667 30.7501],11.179,8.638,14.852,12.269,9.672,7.042,13.75,10.78,156.0,502.0
2015-04-19,Hangzhou,China,120.1667,30.2501,[119.6667 29.7501 120.6667 30.7501],10.749,8.545,14.617,11.794,9.586,7.061,13.712,10.68,172.0,487.0
2015-04-20,Hangzhou,China,120.1667,30.2501,[119.6667 29.7501 120.6667 30.7501],11.848,8.549,15.531,12.671,9.116,6.576,12.445,10.041,138.0,491.0
2015-04-21,Hangzhou,China,120.1667,30.2501,[119.6667 29.7501 120.6667 30.7501],10.377,7.528,14.131,11.401,9.002,6.426,12.257,9.823,174.0,488.0
2015-04-22,Hangzhou,China,120.1667,30.2501,[119.6667 29.7501 120.6667 30.7501],9.92,7.496,14.257,11.31,8.812,6.477,12.334,9.784,189.0,513.0
2015-04-23,Hangzhou,China,120.1667,30.2501,[119.6667 29.7501 120.6667 30.7501],10.258,7.528,15.004,11.634,9.125,6.524,12.619,9.935,188.0,504.0
2015-04-24,Hangzhou,China,120.1667,30.2501,[119.6667 29.7501 120.6667 30.7501],10.258,7.528,15.152,11.657,9.049,6.515,12.027,9.743,192.0,502.0
2015-04-25,Hangzhou,China,120.1667,30.2501,[119.6667 29.7501 120.6667 30.7501],9.769,7.491,14.617,11.515,8.745,6.452,11.755,9.567,174.0,513.0
2015-04-26,Hangzhou,China,120.1667,30.2501,[119.6667 29.7501 120.6667 30.7501],9.464,7.073,12.981,10.971,8.664,6.433,11.328,9.52,192.0,492.0
2015-04-27,Hangzhou,China,120.1667,30.2501,[119.6667 29.7501 120.6667 30.7501],9.464,7.073,12.981,10.971,8.226,6.162,11.002,9.101,192.0,492.0
2015-04-28,Hangzhou,China,120.1667,30.2501,[119.6667 29.7501 120.6667 30.7501],8.574,6.338,12.475,10.197,7.993,5.816,11.031,8.975,213.0,485.0
2015-04-29,Hangzhou,China,120.1667,30.2501,[119.6667 29.7501 120.6667 30.7501],8.242,6.231,10.705,8.942,7.863,5.865,10.321,8.533,198.0,500.0
2015-04-30,Hangzhou,China,120.1667,30.2501,[119.6667 29.7501 120.6667 30.7501],7.798,5.626,9.585,8.194,7.629,5.669,9.688,8.246,193.0,493.0
2015-05-01,Hangzhou,China,120.1667,30.2501,[119.6667 29.7501 120.6667 30.7501],7.798,5.626,9.585,8.194,7.721,5.723,9.836,8.285,193.0,533.0
2015-05-02,Hangzhou,China,120.1667,30.2501,[119.6667 29.7501 120.6667 30.7501],7.798,5.626,9.585,8.194,7.69,5.799,10.002,8.324,193.0,560.0
2015-05-03,Hangzhou,China,120.1667,30.2501,[119.6667 29.7501 120.6667 30.7501],7.735,5.626,9.487,8.076,7.605,5.769,9.568,8.1,179.0,551.0
2015-05-04,Hangzhou,China,120.1667,30.2501,[119.6667 29.7501 120.6667 30.7501],7.735,5.82,9.487,8.141,7.538,5.834,9.535,8.08,163.0,557.0
2015-05-05,Hangzhou,China,120.1667,30.2501,[119.6667 29.7501 120.6667 30.7501],7.174,5.485,8.9,7.555,7.474,5.537,9.574,7.867,191.0,542.0
2015-05-06,Hangzhou,China,120.1667,30.2501,[119.6667 29.7501 120.6667 30.7501],6.573,4.815,8.529,7.249,7.162,5.266,9.416,7.644,153.0,550.0
2015-05-07,Hangzhou,China,120.1667,30.2501,[119.6667 29.7501 120.6667 30.7501],6.365,4.789,8.44,6.999,7.041,5.228,9.337,7.475,128.0,545.0
2015-05-08,Hangzhou,China,120.1667,30.2501,[119.6667 29.7501 120.6667 30.7501],6.161,4.247,8.019,6.249,6.689,4.834,8.592,7.007,120.0,566.0
2015-05-09,Hangzhou,China,120.1667,30.2501,[119.6667 29.7501 120.6667 30.7501],5.838,3.517,7.798,5.785,6.399,4.488,8.124,6.648,94.0,557.0
2015-05-10,Hangzhou,China,120.1667,30.2501,[119.6667 29.7501 120.6667 30.7501],5.838,3.517,7.798,5.83,6.545,4.614,8.316,6.832,101.0,558.0
2015-05-11,Hangzhou,China,120.1667,30.2501,[119.6667 29.7501 120.6667 30.7501],5.838,3.517,7.798,5.725,6.519,4.516,8.411,6.84,83.0,569.0
2015-05-12,Hangzhou,China,120.1667,30.2501,[119.6667 29.7501 120.6667 30.7501],5.838,4.032,7.798,5.795,6.489,4.696,8.42,6.859,92.0,549.0
2015-05-13,Hangzhou,China,120.1667,30.2501,[119.6667 29.7501 120.6667 30.7501],5.553,3.294,7.735,5.483,6.498,4.605,8.439,6.887,71.0,552.0
2015-05-14,Hangzhou,China,120.1667,30.2501,[119.6667 29.7501 120.6667 30.7501],6.365,5.047,8.173,6.298,6.55,4.931,8.502,6.957,107.0,548.0
2015-05-15,Hangzhou,China,120.1667,30.2501,[119.6667 29.7501 120.6667 30.7501],6.365,5.04,8.117,6.304,6.389,4.809,8.431,6.858,82.0,563.0
2015-05-16,Hangzhou,China,120.1667,30.2501,[119.6667 29.7501 120.6667 30.7501],6.365,5.04,8.117,6.304,6.28,4.694,8.42,6.767,82.0,556.0
2015-05-17,Hangzhou,China,120.1667,30.2501,[119.6667 29.7501 120.6667 30.7501],6.365,5.04,8.117,6.298,6.036,4.662,8.086,6.538,83.0,569.0
2015-05-18,Hangzhou,China,120.1667,30.2501,[119.6667 29.7501 120.6667 30.7501],6.365,5.04,8.173,6.28,5.977,4.62,8.067,6.489,82.0,539.0
2015-05-19,Hangzhou,China,120.1667,30.2501,[119.6667 29.7501 120.6667 30.7501],6.365,5.04,8.173,6.299,6.175,4.644,8.305,6.645,84.0,531.0
2015-05-20,Hangzhou,China,120.1667,30.2501,[119.6667 29.7501 120.6667 30.7501],7.173,5.87,8.97,7.386,6.276,4.717,8.409,6.806,56.0,536.0
2015-05-21,Hangzhou,China,120.1667,30.2501,[119.6667 29.7501 120.6667 30.7501],7.173,5.87,8.97,7.386,6.484,5.0,8.547,7.007,56.0,520.0
2015-05-22,Hangzhou,China,120.1667,30.2501,[119.6667 29.7501 120.6667 30.7501],7.173,5.87,8.97,7.386,6.482,4.839,8.562,7.002,56.0,528.0
2015-05-23,Hangzhou,China,120.1667,30.2501,[119.6667 29.7501 120.6667 30.7501],7.173,5.915,8.97,7.404,6.903,5.127,9.069,7.339,55.0,526.0
2015-05-24,Hangzhou,China,120.1667,30.2501,[119.6667 29.7501 120.6667 30.7501],7.173,5.915,8.97,7.454,7.03,5.269,9.119,7.457,57.0,544.0
2015-05-25,Hangzhou,China,120.1667,30.2501,[119.6667 29.7501 120.6667 30.7501],6.6,5.365,8.747,6.787,6.934,5.18,9.296,7.3,59.0,533.0
2015-05-26,Hangzhou,China,120.1667,30.2501,[119.6667 29.7501 120.6667 30.7501],6.6,5.365,8.747,6.787,7.118,4.936,9.255,7.258,59.0,534.0
2015-05-27,Hangzhou,China,120.1667,30.2501,[119.6667 29.7501 120.6667 30.7501],6.744,5.365,8.747,6.823,7.123,5.052,9.34,7.328,50.0,543.0
2015-05-28,Hangzhou,China,120.1667,30.2501,[119.6667 29.7501 120.6667 30.7501],7.089,5.37,8.747,6.988,6.889,4.714,9.121,7.058,52.0,523.0
2015-05-29,Hangzhou,China,120.1667,30.2501,[119.6667 29.7501 120.6667 30.7501],4.115,3.246,4.814,5.226,6.759,4.468,8.882,6.93,16.0,523.0
2015-05-30,Hangzhou,China,120.1667,30.2501,[119.6667 29.7501 120.6667 30.7501],5.612,3.539,6.547,5.388,6.747,4.392,8.684,6.785,50.0,518.0
2015-05-31,Hangzhou,China,120.1667,30.2501,[119.6667 29.7501 120.6667 30.7501],5.612,3.539,6.547,5.388,6.825,4.71,8.575,6.931,50.0,533.0
2015-06-01,Hangzhou,China,120.1667,30.2501,[119.6667 29.7501 120.6667 30.7501],5.612,3.539,6.614,5.393,6.98,4.783,8.593,6.936,49.0,526.0
2015-06-02,Hangzhou,China,120.1667,30.2501,[119.6667 29.7501 120.6667 30.7501],5.612,3.539,6.614,5.393,6.98,4.783,8.593,6.936,49.0,565.0
2015-06-03,Hangzhou,China,120.1667,30.2501,[119.6667 29.7501 120.6667 30.7501],5.612,3.504,6.524,5.353,6.426,4.619,8.277,6.597,47.0,562.0
2015-06-04,Hangzhou,China,120.1667,30.2501,[119.6667 29.7501 120.6667 30.7501],5.612,3.539,6.524,5.364,6.273,4.537,8.097,6.479,48.0,555.0
2015-06-05,Hangzhou,China,120.1667,30.2501,[119.6667 29.7501 120.6667 30.7501],5.643,3.738,6.993,5.662,6.117,4.472,7.713,6.325,63.0,562.0
2015-06-06,Hangzhou,China,120.1667,30.2501,[119.6667 29.7501 120.6667 30.7501],5.643,3.738,6.993,5.662,6.118,4.467,7.553,6.207,63.0,547.0
2015-06-07,Hangzhou,China,120.1667,30.2501,[119.6667 29.7501 120.6667 30.7501],5.643,3.738,6.993,5.662,6.12,4.618,7.73,6.321,63.0,552.0
2015-06-08,Hangzhou,China,120.1667,30.2501,[119.6667 29.7501 120.6667 30.7501],5.643,3.539,6.993,5.603,6.188,4.727,8.033,6.42,61.0,548.0
2015-06-09,Hangzhou,China,120.1667,30.2501,[119.6667 29.7501 120.6667 30.7501],6.308,4.446,7.149,6.077,6.195,4.828,8.036,6.403,55.0,567.0
2015-06-10,Hangzhou,China,120.1667,30.2501,[119.6667 29.7501 120.6667 30.7501],6.308,4.446,7.149,6.077,6.142,4.789,8.044,6.387,55.0,555.0
2015-06-11,Hangzhou,China,120.1667,30.2501,[119.6667 29.7501 120.6667 30.7501],6.308,4.446,7.149,6.077,6.446,4.826,8.094,6.509,55.0,555.0
2015-06-12,Hangzhou,China,120.1667,30.2501,[119.6667 29.7501 120.6667 30.7501],6.04,4.446,7.065,5.871,6.585,5.021,8.27,6.621,58.0,565.0
2015-06-13,Hangzhou,China,120.1667,30.2501,[119.6667 29.7501 120.6667 30.7501],6.04,4.881,7.294,6.197,6.545,5.095,8.254,6.649,73.0,543.0
2015-06-14,Hangzhou,China,120.1667,30.2501,[119.6667 29.7501 120.6667 30.7501],6.48,5.499,9.046,7.653,6.643,5.136,8.513,6.784,39.0,545.0
2015-06-15,Hangzhou,China,120.1667,30.2501,[119.6667 29.7501 120.6667 30.7501],6.48,5.499,9.046,7.653,6.43,4.87,8.283,6.603,39.0,539.0